Location: Azul
(36.7830°S, 59.8500°W)
Time: 03:00:10
(UTC-03:00)

ISS - Pass Details

Date: 11 October 2019
Orbit: 411 x 421 km, 51.6° (Epoch: 14 October)

Event Time Altitude Azimuth Distance (km) Brightness Sun altitude
Rises 05:22:28 0° 219° (SW) 2,402 -0.1 -12.2°
Reaches altitude 10° 05:25:09 10° 197° (SSW) 1,533 -0.9 -11.7°
Maximum altitude 05:27:28 17° 154° (SSE) 1,185 -0.9 -11.3°
Drops below altitude 10° 05:29:46 10° 112° (ESE) 1,527 0.7 -10.8°
Sets 05:32:26 0° 90° (E) 2,387 1.7 -10.3°
